"Time","Value","Approval","myLocation"
"2023-05-06 00:00",24.0108455999557,"Approved","OW309"
"2023-05-06 01:00",24.0088394804862,"Approved","OW309"
"2023-05-06 02:00",24.0078333610166,"Approved","OW309"
"2023-05-06 03:00",24.0058272415471,"Approved","OW309"
"2023-05-06 04:00",24.0038211220776,"Approved","OW309"
"2023-05-06 05:00",24.0018150026081,"Approved","OW309"
"2023-05-06 06:00",24.0008088831385,"Approved","OW309"
"2023-05-06 07:00",23.998802763669,"Approved","OW309"
"2023-05-06 08:00",23.9967966441995,"Approved","OW309"
"2023-05-06 09:00",23.9957905247299,"Approved","OW309"
"2023-05-06 10:00",23.9937844052604,"Approved","OW309"
"2023-05-06 11:00",23.9917782857909,"Approved","OW309"
"2023-05-06 12:00",23.9887721663214,"Approved","OW309"
"2023-05-06 13:00",23.9867660468518,"Approved","OW309"
"2023-05-06 14:00",23.9847599273823,"Approved","OW309"
"2023-05-06 15:00",23.9827538079128,"Approved","OW309"
"2023-05-06 16:00",23.9807476884432,"Approved","OW309"
"2023-05-06 17:00",23.9787415689737,"Approved","OW309"
"2023-05-06 18:00",23.9777354495042,"Approved","OW309"
"2023-05-06 19:00",23.9767293300347,"Approved","OW309"
"2023-05-06 20:00",23.9757232105651,"Approved","OW309"
"2023-05-06 21:00",23.9737170910956,"Approved","OW309"
"2023-05-06 22:00",23.9707109716261,"Approved","OW309"
"2023-05-06 23:00",23.9667048521565,"Approved","OW309"
"2023-05-07 00:00",23.961698732687,"Approved","OW309"
"2023-05-07 01:00",23.9596926132175,"Approved","OW309"
"2023-05-07 02:00",23.9586864937479,"Approved","OW309"
"2023-05-07 03:00",23.9586803742784,"Approved","OW309"
"2023-05-07 04:00",23.9566742548089,"Approved","OW309"
"2023-05-07 05:00",23.9556681353394,"Approved","OW309"
"2023-05-07 06:00",23.9536620158698,"Approved","OW309"
"2023-05-07 07:00",23.9526558964003,"Approved","OW309"
"2023-05-07 08:00",23.9526497769308,"Approved","OW309"
"2023-05-07 09:00",23.9516436574612,"Approved","OW309"
"2023-05-07 10:00",23.9496375379917,"Approved","OW309"
"2023-05-07 11:00",23.9486314185222,"Approved","OW309"
"2023-05-07 12:00",23.9476252990526,"Approved","OW309"
"2023-05-07 13:00",23.9466191795831,"Approved","OW309"
"2023-05-07 14:00",23.9446130601136,"Approved","OW309"
"2023-05-07 15:00",23.9426069406441,"Approved","OW309"
"2023-05-07 16:00",23.9396008211745,"Approved","OW309"
"2023-05-07 17:00",23.937594701705,"Approved","OW309"
"2023-05-07 18:00",23.9355885822355,"Approved","OW309"
"2023-05-07 19:00",23.9345824627659,"Approved","OW309"
"2023-05-07 20:00",23.9325763432964,"Approved","OW309"
"2023-05-07 21:00",23.9295702238269,"Approved","OW309"
"2023-05-07 22:00",23.9285641043574,"Approved","OW309"
"2023-05-07 23:00",23.9275579848878,"Approved","OW309"
"2023-05-08 00:00",23.9275518654183,"Approved","OW309"
"2023-05-08 01:00",23.9255457459488,"Approved","OW309"
"2023-05-08 02:00",23.9245396264792,"Approved","OW309"
"2023-05-08 03:00",23.9235335070097,"Approved","OW309"
"2023-05-08 04:00",23.9225273875402,"Approved","OW309"
"2023-05-08 05:00",23.9205212680706,"Approved","OW309"
"2023-05-08 06:00",23.9195151486011,"Approved","OW309"
"2023-05-08 07:00",23.9185090291316,"Approved","OW309"
"2023-05-08 08:00",23.9175029096621,"Approved","OW309"
"2023-05-08 09:00",23.9164967901925,"Approved","OW309"
"2023-05-08 10:00",23.914490670723,"Approved","OW309"
"2023-05-08 11:00",23.9134845512535,"Approved","OW309"
"2023-05-08 12:00",23.9114784317839,"Approved","OW309"
"2023-05-08 13:00",23.9094723123144,"Approved","OW309"
"2023-05-08 14:00",23.9084661928449,"Approved","OW309"
"2023-05-08 15:00",23.9064600733754,"Approved","OW309"
"2023-05-08 16:00",23.9034539539058,"Approved","OW309"
"2023-05-08 17:00",23.9014478344363,"Approved","OW309"
"2023-05-08 18:00",23.8994417149668,"Approved","OW309"
"2023-05-08 19:00",23.8974355954972,"Approved","OW309"
"2023-05-08 20:00",23.8954294760277,"Approved","OW309"
"2023-05-08 21:00",23.8954233565582,"Approved","OW309"
"2023-05-08 22:00",23.8934172370886,"Approved","OW309"
"2023-05-08 23:00",23.8914111176191,"Approved","OW309"
"2023-05-09 00:00",23.8914049981496,"Approved","OW309"
"2023-05-09 01:00",23.8893988786801,"Approved","OW309"
"2023-05-09 02:00",23.8893927592105,"Approved","OW309"
"2023-05-09 03:00",23.887386639741,"Approved","OW309"
"2023-05-09 04:00",23.8863805202715,"Approved","OW309"
"2023-05-09 05:00",23.8843744008019,"Approved","OW309"
"2023-05-09 06:00",23.8833682813324,"Approved","OW309"
"2023-05-09 07:00",23.8823621618629,"Approved","OW309"
"2023-05-09 08:00",23.8813560423934,"Approved","OW309"
"2023-05-09 09:00",23.8803499229238,"Approved","OW309"
"2023-05-09 10:00",23.8783438034543,"Approved","OW309"
"2023-05-09 11:00",23.8773376839848,"Approved","OW309"
"2023-05-09 12:00",23.8753315645152,"Approved","OW309"
"2023-05-09 13:00",23.8733254450457,"Approved","OW309"
"2023-05-09 14:00",23.8723193255762,"Approved","OW309"
"2023-05-09 15:00",23.8713132061066,"Approved","OW309"
"2023-05-09 16:00",23.8703070866371,"Approved","OW309"
"2023-05-09 17:00",23.8683009671676,"Approved","OW309"
"2023-05-09 18:00",23.8662948476981,"Approved","OW309"
"2023-05-09 19:00",23.8642887282285,"Approved","OW309"
"2023-05-09 20:00",23.863282608759,"Approved","OW309"
"2023-05-09 21:00",23.8612764892895,"Approved","OW309"
"2023-05-09 22:00",23.8592703698199,"Approved","OW309"
"2023-05-09 23:00",23.8572642503504,"Approved","OW309"
"2023-05-10 00:00",23.8562581308809,"Approved","OW309"
"2023-05-10 01:00",23.8552520114114,"Approved","OW309"
"2023-05-10 02:00",23.8532458919418,"Approved","OW309"
"2023-05-10 03:00",23.8522397724723,"Approved","OW309"
"2023-05-10 04:00",23.8512336530028,"Approved","OW309"
"2023-05-10 05:00",23.8502275335332,"Approved","OW309"
"2023-05-10 06:00",23.8472214140637,"Approved","OW309"
"2023-05-10 07:00",23.8462152945942,"Approved","OW309"
"2023-05-10 08:00",23.8452091751246,"Approved","OW309"
"2023-05-10 09:00",23.8442030556551,"Approved","OW309"
"2023-05-10 10:00",23.8421969361856,"Approved","OW309"
"2023-05-10 11:00",23.8411908167161,"Approved","OW309"
"2023-05-10 12:00",23.8401846972465,"Approved","OW309"
"2023-05-10 13:00",23.838178577777,"Approved","OW309"
"2023-05-10 14:00",23.8361724583075,"Approved","OW309"
"2023-05-10 15:00",23.8341663388379,"Approved","OW309"
"2023-05-10 16:00",23.8341602193684,"Approved","OW309"
"2023-05-10 17:00",23.8311540998989,"Approved","OW309"
"2023-05-10 18:00",23.8301479804294,"Approved","OW309"
"2023-05-10 19:00",23.8281418609598,"Approved","OW309"
"2023-05-10 20:00",23.8271357414903,"Approved","OW309"
"2023-05-10 21:00",23.8251296220208,"Approved","OW309"
"2023-05-10 22:00",23.8241235025512,"Approved","OW309"
"2023-05-10 23:00",23.8231173830817,"Approved","OW309"
"2023-05-11 00:00",23.8211112636122,"Approved","OW309"
"2023-05-11 01:00",23.8191051441427,"Approved","OW309"
"2023-05-11 02:00",23.8180990246731,"Approved","OW309"
"2023-05-11 03:00",23.8180929052036,"Approved","OW309"
"2023-05-11 04:00",23.8160867857341,"Approved","OW309"
"2023-05-11 05:00",23.8160806662645,"Approved","OW309"
"2023-05-11 06:00",23.815074546795,"Approved","OW309"
"2023-05-11 07:00",23.8140684273255,"Approved","OW309"
"2023-05-11 08:00",23.8120623078559,"Approved","OW309"
"2023-05-11 09:00",23.8110561883864,"Approved","OW309"
"2023-05-11 10:00",23.8100500689169,"Approved","OW309"
"2023-05-11 11:00",23.8080439494474,"Approved","OW309"
"2023-05-11 12:00",23.8060378299778,"Approved","OW309"
"2023-05-11 13:00",23.8050317105083,"Approved","OW309"
"2023-05-11 14:00",23.8030255910388,"Approved","OW309"
"2023-05-11 15:00",23.8020194715692,"Approved","OW309"
"2023-05-11 16:00",23.8000133520997,"Approved","OW309"
"2023-05-11 17:00",23.7990072326302,"Approved","OW309"
"2023-05-11 18:00",23.7980011131606,"Approved","OW309"
"2023-05-11 19:00",23.7969949936911,"Approved","OW309"
"2023-05-11 20:00",23.7959888742216,"Approved","OW309"
"2023-05-11 21:00",23.7959827547521,"Approved","OW309"
"2023-05-11 22:00",23.7949766352825,"Approved","OW309"
"2023-05-11 23:00",23.793970515813,"Approved","OW309"
"2023-05-12 00:00",23.7929643963435,"Approved","OW309"
"2023-05-12 01:00",23.7919582768739,"Approved","OW309"
"2023-05-12 02:00",23.7909521574044,"Approved","OW309"
"2023-05-12 03:00",23.7899460379349,"Approved","OW309"
"2023-05-12 04:00",23.7899399184654,"Approved","OW309"
"2023-05-12 05:00",23.7889337989958,"Approved","OW309"
"2023-05-12 06:00",23.7899276795263,"Approved","OW309"
"2023-05-12 07:00",23.7879215600568,"Approved","OW309"
"2023-05-12 08:00",23.7869154405872,"Approved","OW309"
"2023-05-12 09:00",23.7859093211177,"Approved","OW309"
"2023-05-12 10:00",23.7839032016482,"Approved","OW309"
"2023-05-12 11:00",23.7828970821786,"Approved","OW309"
"2023-05-12 12:00",23.7798909627091,"Approved","OW309"
"2023-05-12 13:00",23.7788848432396,"Approved","OW309"
"2023-05-12 14:00",23.7778787237701,"Approved","OW309"
"2023-05-12 15:00",23.7758726043005,"Approved","OW309"
"2023-05-12 16:00",23.773866484831,"Approved","OW309"
"2023-05-12 17:00",23.7738603653615,"Approved","OW309"
"2023-05-12 18:00",23.7728542458919,"Approved","OW309"
"2023-05-12 19:00",23.7718481264224,"Approved","OW309"
"2023-05-12 20:00",23.7708420069529,"Approved","OW309"
"2023-05-12 21:00",23.7708358874834,"Approved","OW309"
"2023-05-12 22:00",23.7698297680138,"Approved","OW309"
"2023-05-12 23:00",23.7688236485443,"Approved","OW309"
"2023-05-13 00:00",23.7688175290748,"Approved","OW309"
"2023-05-13 01:00",23.7668114096052,"Approved","OW309"
"2023-05-13 02:00",23.7658052901357,"Approved","OW309"
"2023-05-13 03:00",23.7657991706662,"Approved","OW309"
"2023-05-13 04:00",23.7647930511966,"Approved","OW309"
"2023-05-13 05:00",23.7647869317271,"Approved","OW309"
"2023-05-13 06:00",23.7637808122576,"Approved","OW309"
"2023-05-13 07:00",23.7637746927881,"Approved","OW309"
"2023-05-13 08:00",23.7627685733185,"Approved","OW309"
"2023-05-13 09:00",23.761762453849,"Approved","OW309"
"2023-05-13 10:00",23.7597563343795,"Approved","OW309"
"2023-05-13 11:00",23.7577502149099,"Approved","OW309"
"2023-05-13 12:00",23.7547440954404,"Approved","OW309"
"2023-05-13 13:00",23.7537379759709,"Approved","OW309"
"2023-05-13 14:00",23.7517318565014,"Approved","OW309"
"2023-05-13 15:00",23.7507257370318,"Approved","OW309"
"2023-05-13 16:00",23.7487196175623,"Approved","OW309"
"2023-05-13 17:00",23.7477134980928,"Approved","OW309"
"2023-05-13 18:00",23.7477073786232,"Approved","OW309"
"2023-05-13 19:00",23.7467012591537,"Approved","OW309"
"2023-05-13 20:00",23.7466951396842,"Approved","OW309"
"2023-05-13 21:00",23.7476890202146,"Approved","OW309"
"2023-05-13 22:00",23.7466829007451,"Approved","OW309"
"2023-05-13 23:00",23.7456767812756,"Approved","OW309"
"2023-05-14 00:00",23.7446706618061,"Approved","OW309"
"2023-05-14 01:00",23.7456645423365,"Approved","OW309"
"2023-05-14 02:00",23.743658422867,"Approved","OW309"
"2023-05-14 03:00",23.7426523033975,"Approved","OW309"
"2023-05-14 04:00",23.7416461839279,"Approved","OW309"
"2023-05-14 05:00",23.7416400644584,"Approved","OW309"
"2023-05-14 06:00",23.7406339449889,"Approved","OW309"
"2023-05-14 07:00",23.7396278255194,"Approved","OW309"
"2023-05-14 08:00",23.7396217060498,"Approved","OW309"
"2023-05-14 09:00",23.7386155865803,"Approved","OW309"
"2023-05-14 10:00",23.7366094671108,"Approved","OW309"
"2023-05-14 11:00",23.7346033476412,"Approved","OW309"
"2023-05-14 12:00",23.7325972281717,"Approved","OW309"
"2023-05-14 13:00",23.7305911087022,"Approved","OW309"
"2023-05-14 14:00",23.7295849892326,"Approved","OW309"
"2023-05-14 15:00",23.7285788697631,"Approved","OW309"
"2023-05-14 16:00",23.7275727502936,"Approved","OW309"
"2023-05-14 17:00",23.7265666308241,"Approved","OW309"
"2023-05-14 18:00",23.7255605113545,"Approved","OW309"
"2023-05-14 19:00",23.725554391885,"Approved","OW309"
"2023-05-14 20:00",23.7255482724155,"Approved","OW309"
"2023-05-14 21:00",23.7255421529459,"Approved","OW309"
"2023-05-14 22:00",23.7255360334764,"Approved","OW309"
"2023-05-14 23:00",23.7245299140069,"Approved","OW309"
"2023-05-15 00:00",23.7235237945374,"Approved","OW309"
"2023-05-15 01:00",23.7235176750678,"Approved","OW309"
"2023-05-15 02:00",23.7225115555983,"Approved","OW309"
"2023-05-15 03:00",23.7215054361288,"Approved","OW309"
"2023-05-15 04:00",23.7204993166592,"Approved","OW309"
"2023-05-15 05:00",23.7204931971897,"Approved","OW309"
"2023-05-15 06:00",23.7204870777202,"Approved","OW309"
"2023-05-15 07:00",23.7194809582506,"Approved","OW309"
"2023-05-15 08:00",23.7194748387811,"Approved","OW309"
"2023-05-15 09:00",23.7184687193116,"Approved","OW309"
"2023-05-15 10:00",23.7164625998421,"Approved","OW309"
"2023-05-15 11:00",23.7144564803725,"Approved","OW309"
"2023-05-15 12:00",23.713450360903,"Approved","OW309"
"2023-05-15 13:00",23.7114442414335,"Approved","OW309"
"2023-05-15 14:00",23.7094381219639,"Approved","OW309"
"2023-05-15 15:00",23.7074320024944,"Approved","OW309"
"2023-05-15 16:00",23.7064258830249,"Approved","OW309"
"2023-05-15 17:00",23.7064197635554,"Approved","OW309"
"2023-05-15 18:00",23.7054136440858,"Approved","OW309"
"2023-05-15 19:00",23.7054075246163,"Approved","OW309"
"2023-05-15 20:00",23.7054014051468,"Approved","OW309"
"2023-05-15 21:00",23.7063952856772,"Approved","OW309"
"2023-05-15 22:00",23.7063891662077,"Approved","OW309"
"2023-05-15 23:00",23.7063830467382,"Approved","OW309"
"2023-05-16 00:00",23.7063769272686,"Approved","OW309"
"2023-05-16 01:00",23.7063708077991,"Approved","OW309"
"2023-05-16 02:00",23.7053646883296,"Approved","OW309"
"2023-05-16 03:00",23.7053585688601,"Approved","OW309"
"2023-05-16 04:00",23.7053524493905,"Approved","OW309"
"2023-05-16 05:00",23.704346329921,"Approved","OW309"
"2023-05-16 06:00",23.7043402104515,"Approved","OW309"
"2023-05-16 07:00",23.7053340909819,"Approved","OW309"
"2023-05-16 08:00",23.7053279715124,"Approved","OW309"
"2023-05-16 09:00",23.7043218520429,"Approved","OW309"
"2023-05-16 10:00",23.7033157325734,"Approved","OW309"
"2023-05-16 11:00",23.7013096131038,"Approved","OW309"
"2023-05-16 12:00",23.7003034936343,"Approved","OW309"
"2023-05-16 13:00",23.6982973741648,"Approved","OW309"
"2023-05-16 14:00",23.6952912546952,"Approved","OW309"
"2023-05-16 15:00",23.6942851352257,"Approved","OW309"
"2023-05-16 16:00",23.6922790157562,"Approved","OW309"
"2023-05-16 17:00",23.6902728962867,"Approved","OW309"
"2023-05-16 18:00",23.6892667768171,"Approved","OW309"
"2023-05-16 19:00",23.6902606573476,"Approved","OW309"
"2023-05-16 20:00",23.6902545378781,"Approved","OW309"
"2023-05-16 21:00",23.6912484184085,"Approved","OW309"
"2023-05-16 22:00",23.692242298939,"Approved","OW309"
"2023-05-16 23:00",23.6922361794695,"Approved","OW309"
"2023-05-17 00:00",23.6932300599999,"Approved","OW309"
"2023-05-17 01:00",23.6922239405304,"Approved","OW309"
"2023-05-17 02:00",23.6912178210609,"Approved","OW309"
"2023-05-17 03:00",23.6902117015914,"Approved","OW309"
"2023-05-17 04:00",23.6892055821218,"Approved","OW309"
"2023-05-17 05:00",23.6891994626523,"Approved","OW309"
"2023-05-17 06:00",23.6881933431828,"Approved","OW309"
"2023-05-17 07:00",23.6881872237132,"Approved","OW309"
"2023-05-17 08:00",23.6881811042437,"Approved","OW309"
"2023-05-17 09:00",23.6871749847742,"Approved","OW309"
"2023-05-17 10:00",23.6861688653046,"Approved","OW309"
"2023-05-17 11:00",23.6851627458351,"Approved","OW309"
"2023-05-17 12:00",23.6831566263656,"Approved","OW309"
"2023-05-17 13:00",23.6811505068961,"Approved","OW309"
"2023-05-17 14:00",23.6791443874265,"Approved","OW309"
"2023-05-17 15:00",23.677138267957,"Approved","OW309"
"2023-05-17 16:00",23.6751321484875,"Approved","OW309"
"2023-05-17 17:00",23.6741260290179,"Approved","OW309"
"2023-05-17 18:00",23.6731199095484,"Approved","OW309"
"2023-05-17 19:00",23.6731137900789,"Approved","OW309"
"2023-05-17 20:00",23.6731076706094,"Approved","OW309"
"2023-05-17 21:00",23.6741015511398,"Approved","OW309"
"2023-05-17 22:00",23.6740954316703,"Approved","OW309"
"2023-05-17 23:00",23.6750893122008,"Approved","OW309"
"2023-05-18 00:00",23.6750831927312,"Approved","OW309"
"2023-05-18 01:00",23.6750770732617,"Approved","OW309"
"2023-05-18 02:00",23.6760709537922,"Approved","OW309"
"2023-05-18 03:00",23.6740648343226,"Approved","OW309"
"2023-05-18 04:00",23.6740587148531,"Approved","OW309"
"2023-05-18 05:00",23.6740525953836,"Approved","OW309"
"2023-05-18 06:00",23.6730464759141,"Approved","OW309"
"2023-05-18 07:00",23.6740403564445,"Approved","OW309"
"2023-05-18 08:00",23.673034236975,"Approved","OW309"
"2023-05-18 09:00",23.6720281175055,"Approved","OW309"
"2023-05-18 10:00",23.6720219980359,"Approved","OW309"
"2023-05-18 11:00",23.6710158785664,"Approved","OW309"
"2023-05-18 12:00",23.6690097590969,"Approved","OW309"
"2023-05-18 13:00",23.6670036396274,"Approved","OW309"
"2023-05-18 14:00",23.6659975201578,"Approved","OW309"
"2023-05-18 15:00",23.6639914006883,"Approved","OW309"
"2023-05-18 16:00",23.6619852812188,"Approved","OW309"
"2023-05-18 17:00",23.6599791617492,"Approved","OW309"
"2023-05-18 18:00",23.6589730422797,"Approved","OW309"
"2023-05-18 19:00",23.6589669228102,"Approved","OW309"
"2023-05-18 20:00",23.6579608033407,"Approved","OW309"
"2023-05-18 21:00",23.6589546838711,"Approved","OW309"
"2023-05-18 22:00",23.6599485644016,"Approved","OW309"
"2023-05-18 23:00",23.6599424449321,"Approved","OW309"
"2023-05-19 00:00",23.6599363254625,"Approved","OW309"
"2023-05-19 01:00",23.659930205993,"Approved","OW309"
"2023-05-19 02:00",23.6599240865235,"Approved","OW309"
"2023-05-19 03:00",23.6589179670539,"Approved","OW309"
"2023-05-19 04:00",23.6589118475844,"Approved","OW309"
"2023-05-19 05:00",23.6579057281149,"Approved","OW309"
"2023-05-19 06:00",23.6578996086454,"Approved","OW309"
"2023-05-19 07:00",23.6578934891758,"Approved","OW309"
"2023-05-19 08:00",23.6568873697063,"Approved","OW309"
"2023-05-19 09:00",23.6568812502368,"Approved","OW309"
"2023-05-19 10:00",23.6548751307672,"Approved","OW309"
"2023-05-19 11:00",23.6538690112977,"Approved","OW309"
"2023-05-19 12:00",23.6538628918282,"Approved","OW309"
"2023-05-19 13:00",23.6508567723586,"Approved","OW309"
"2023-05-19 14:00",23.6498506528891,"Approved","OW309"
"2023-05-19 15:00",23.6488445334196,"Approved","OW309"
"2023-05-19 16:00",23.6478384139501,"Approved","OW309"
"2023-05-19 17:00",23.6458322944805,"Approved","OW309"
"2023-05-19 18:00",23.644826175011,"Approved","OW309"
"2023-05-19 19:00",23.6428200555415,"Approved","OW309"
"2023-05-19 20:00",23.6428139360719,"Approved","OW309"
"2023-05-19 21:00",23.6438078166024,"Approved","OW309"
"2023-05-19 22:00",23.6438016971329,"Approved","OW309"
"2023-05-19 23:00",23.6437955776634,"Approved","OW309"
"2023-05-20 00:00",23.6437894581938,"Approved","OW309"
"2023-05-20 01:00",23.6437833387243,"Approved","OW309"
"2023-05-20 02:00",23.6437772192548,"Approved","OW309"
"2023-05-20 03:00",23.6437710997852,"Approved","OW309"
"2023-05-20 04:00",23.6427649803157,"Approved","OW309"
"2023-05-20 05:00",23.6417588608462,"Approved","OW309"
"2023-05-20 06:00",23.6417527413766,"Approved","OW309"
"2023-05-20 07:00",23.6407466219071,"Approved","OW309"
"2023-05-20 08:00",23.6397405024376,"Approved","OW309"
"2023-05-20 09:00",23.6387343829681,"Approved","OW309"
"2023-05-20 10:00",23.6377282634985,"Approved","OW309"
"2023-05-20 11:00",23.637722144029,"Approved","OW309"
"2023-05-20 12:00",23.6367160245595,"Approved","OW309"
"2023-05-20 13:00",23.6357099050899,"Approved","OW309"
"2023-05-20 14:00",23.6347037856204,"Approved","OW309"
"2023-05-20 15:00",23.6326976661509,"Approved","OW309"
"2023-05-20 16:00",23.6306915466814,"Approved","OW309"
"2023-05-20 17:00",23.6286854272118,"Approved","OW309"
"2023-05-20 18:00",23.6276793077423,"Approved","OW309"
"2023-05-20 19:00",23.6266731882728,"Approved","OW309"
"2023-05-20 20:00",23.6256670688032,"Approved","OW309"
"2023-05-20 21:00",23.6256609493337,"Approved","OW309"
"2023-05-20 22:00",23.6256548298642,"Approved","OW309"
"2023-05-20 23:00",23.6256487103946,"Approved","OW309"
"2023-05-21 00:00",23.6256425909251,"Approved","OW309"
"2023-05-21 01:00",23.6256364714556,"Approved","OW309"
"2023-05-21 02:00",23.6246303519861,"Approved","OW309"
"2023-05-21 03:00",23.6246242325165,"Approved","OW309"
"2023-05-21 04:00",23.623618113047,"Approved","OW309"
"2023-05-21 05:00",23.6236119935775,"Approved","OW309"
"2023-05-21 06:00",23.6226058741079,"Approved","OW309"
"2023-05-21 07:00",23.6225997546384,"Approved","OW309"
"2023-05-21 08:00",23.6205936351689,"Approved","OW309"
"2023-05-21 09:00",23.6195875156994,"Approved","OW309"
"2023-05-21 10:00",23.6195813962298,"Approved","OW309"
"2023-05-21 11:00",23.6175752767603,"Approved","OW309"
"2023-05-21 12:00",23.6175691572908,"Approved","OW309"
"2023-05-21 13:00",23.6185630378212,"Approved","OW309"
"2023-05-21 14:00",23.6165569183517,"Approved","OW309"
"2023-05-21 15:00",23.6145507988822,"Approved","OW309"
"2023-05-21 16:00",23.6115446794126,"Approved","OW309"
"2023-05-21 17:00",23.6105385599431,"Approved","OW309"
"2023-05-21 18:00",23.6095324404736,"Approved","OW309"
"2023-05-21 19:00",23.6095263210041,"Approved","OW309"
"2023-05-21 20:00",23.6105202015345,"Approved","OW309"
"2023-05-21 21:00",23.609514082065,"Approved","OW309"
"2023-05-21 22:00",23.6095079625955,"Approved","OW309"
"2023-05-21 23:00",23.6085018431259,"Approved","OW309"
"2023-05-22 00:00",23.6074957236564,"Approved","OW309"
"2023-05-22 01:00",23.6074896041869,"Approved","OW309"
"2023-05-22 02:00",23.6074834847174,"Approved","OW309"
"2023-05-22 03:00",23.6074773652478,"Approved","OW309"
"2023-05-22 04:00",23.6064712457783,"Approved","OW309"
"2023-05-22 05:00",23.6054651263088,"Approved","OW309"
"2023-05-22 06:00",23.6044590068392,"Approved","OW309"
"2023-05-22 07:00",23.6044528873697,"Approved","OW309"
"2023-05-22 08:00",23.6044467679002,"Approved","OW309"
"2023-05-22 09:00",23.6034406484306,"Approved","OW309"
"2023-05-22 10:00",23.6034345289611,"Approved","OW309"
"2023-05-22 11:00",23.6024284094916,"Approved","OW309"
"2023-05-22 12:00",23.6034222900221,"Approved","OW309"
"2023-05-22 13:00",23.6024161705525,"Approved","OW309"
"2023-05-22 14:00",23.603410051083,"Approved","OW309"
"2023-05-22 15:00",23.6024039316135,"Approved","OW309"
"2023-05-22 16:00",23.6013978121439,"Approved","OW309"
"2023-05-22 17:00",23.5993916926744,"Approved","OW309"
"2023-05-22 18:00",23.5983855732049,"Approved","OW309"
"2023-05-22 19:00",23.5953794537354,"Approved","OW309"
"2023-05-22 20:00",23.5923733342658,"Approved","OW309"
"2023-05-22 21:00",23.5913672147963,"Approved","OW309"
"2023-05-22 22:00",23.5893610953268,"Approved","OW309"
"2023-05-22 23:00",23.5873549758572,"Approved","OW309"
"2023-05-23 00:00",23.5873488563877,"Approved","OW309"
"2023-05-23 01:00",23.5873427369182,"Approved","OW309"
"2023-05-23 02:00",23.5873366174486,"Approved","OW309"
"2023-05-23 03:00",23.5863304979791,"Approved","OW309"
"2023-05-23 04:00",23.5863243785096,"Approved","OW309"
"2023-05-23 05:00",23.5873182590401,"Approved","OW309"
"2023-05-23 06:00",23.5873121395705,"Approved","OW309"
"2023-05-23 07:00",23.588306020101,"Approved","OW309"
"2023-05-23 08:00",23.5882999006315,"Approved","OW309"
"2023-05-23 09:00",23.5892937811619,"Approved","OW309"
"2023-05-23 10:00",23.5892876616924,"Approved","OW309"
"2023-05-23 11:00",23.5892815422229,"Approved","OW309"
"2023-05-23 12:00",23.5892754227534,"Approved","OW309"
"2023-05-23 13:00",23.5892693032838,"Approved","OW309"
"2023-05-23 14:00",23.5882631838143,"Approved","OW309"
"2023-05-23 15:00",23.5892570643448,"Approved","OW309"
"2023-05-23 16:00",23.5882509448752,"Approved","OW309"
"2023-05-23 17:00",23.5872448254057,"Approved","OW309"
"2023-05-23 18:00",23.5862387059362,"Approved","OW309"
"2023-05-23 19:00",23.5852325864666,"Approved","OW309"